Burns, OR

9:45 PM PDT on September 27, 2016 (GMT -0700)
Burns Municipal

Weather History for KBNO - July, 2013

Change the Weather History Date:

Thursday, July 4, 2013

  Actual Average Record
Temperature  
Mean Temperature 77 °F 64 °F  
Max Temperature 92 °F 83 °F 98 °F (2001)
Min Temperature 61 °F 46 °F 32 °F (2000)
Degree Days  
Heating Degree Days 0 3  
Month to date heating degree days 0 13  
Since 1 June heating degree days 188 231  
Since 1 July heating degree days 0 13  
Cooling Degree Days 12 2  
Month to date cooling degree days 63 8  
Year to date cooling degree days 118 31  
Since 1 June cooling degree days 117 28  
Growing Degree Days 26 (Base 50)    
Moisture  
Dew Point 38 °F    
Average Humidity 33    
Maximum Humidity 52    
Minimum Humidity 14    
Precipitation  
Precipitation 0.00 in 0.01 in 0.32 in (1944)
Month to date precipitation T 0.05  
Year to date precipitation 3.41 6.27  
Sea Level Pressure  
Sea Level Pressure 29.87 in    
Wind  
Wind Speed 10 mph (West)    
Max Wind Speed 17 mph    
Max Gust Speed 24 mph    
Visibility 10 miles    
Events      
T = Trace of Precipitation, MM = Missing Value Source: NWS Daily Summary

Daily Weather History Graph

Daily Weather History Graph

Search for Another Location

Airport or City:

Trip Planner

Search our weather history database for the weather conditions in past years. The results will help you decide how hot, cold, wet, or windy it might be!

Date:

Astronomy

Jul. 04, 2013 Rise Set
Actual Time 5:20 AM PDT 8:40 PM PDT
Civil Twilight 4:44 AM PDT 9:15 PM PDT
Nautical Twilight 3:58 AM PDT 10:01 PM PDT
Astronomical Twilight 3:01 AM PDT 10:58 PM PDT
Moon 2:42 AM PDT (7/4) 5:46 PM PDT (7/4)
Length of Visible Light 16h 30m
Length of Day
15h 19m
Waning Crescent, 11% of the Moon is Illuminated
Jul 4
Waning Crescent
Jul 8
New
Jul 15
First Quarter
Jul 22
Full
Jul 29
Last Quarter

Hourly Weather History & Observations

Time (PDT) Temp. Dew Point Humidity Pressure Visibility Wind Dir Wind Speed Gust Speed Precip Events Conditions
12:53 AM 70.0 °F 45.0 °F 41% 29.95 in 10.0 mi SW 8.1 mph - N/A   Partly Cloudy
1:53 AM 64.9 °F 46.0 °F 50% 29.95 in 10.0 mi Calm Calm - N/A   Clear
2:53 AM 64.0 °F 46.0 °F 52% 29.93 in 10.0 mi West 6.9 mph - N/A   Clear
3:53 AM 64.0 °F 44.1 °F 48% 29.91 in 10.0 mi West 13.8 mph - N/A   Clear
4:53 AM 64.0 °F 42.1 °F 45% 29.91 in 10.0 mi West 6.9 mph - N/A   Clear
5:53 AM 62.1 °F 41.0 °F 46% 29.91 in 10.0 mi West 6.9 mph - N/A   Clear
6:53 AM 66.9 °F 39.9 °F 37% 29.92 in 10.0 mi West 9.2 mph - N/A   Clear
7:53 AM 73.0 °F 37.9 °F 28% 29.92 in 10.0 mi West 13.8 mph - N/A   Clear
8:53 AM 78.1 °F 34.0 °F 20% 29.91 in 10.0 mi West 15.0 mph - N/A   Clear
9:53 AM 80.1 °F 35.1 °F 20% 29.90 in 10.0 mi West 13.8 mph - N/A   Clear
10:53 AM 82.0 °F 35.1 °F 18% 29.89 in 10.0 mi West 10.4 mph - N/A   Clear
11:53 AM 86.0 °F 36.0 °F 17% 29.88 in 10.0 mi Variable 5.8 mph 17.3 mph N/A   Clear
12:53 PM 87.1 °F 36.0 °F 16% 29.87 in 10.0 mi West 9.2 mph - N/A   Clear
1:53 PM 89.1 °F 36.0 °F 15% 29.85 in 10.0 mi Variable 6.9 mph - N/A   Clear
2:53 PM 89.1 °F 34.0 °F 14% 29.84 in 10.0 mi Variable 5.8 mph 24.2 mph N/A   Clear
3:53 PM 89.1 °F 36.0 °F 15% 29.83 in 10.0 mi WSW 10.4 mph - N/A   Clear
4:53 PM 87.1 °F 36.0 °F 16% 29.81 in 10.0 mi WSW 16.1 mph - N/A   Clear
5:53 PM 86.0 °F 35.1 °F 16% 29.81 in 10.0 mi West 10.4 mph - N/A   Clear
6:53 PM 84.9 °F 36.0 °F 17% 29.79 in 10.0 mi West 6.9 mph - N/A   Clear
7:53 PM 80.1 °F 37.0 °F 21% 29.78 in 10.0 mi WNW 12.7 mph - N/A   Clear
8:53 PM 73.9 °F 34.0 °F 23% 29.79 in 10.0 mi NNW 15.0 mph - N/A   Clear
9:53 PM 66.0 °F 35.1 °F 32% 29.83 in 10.0 mi West 11.5 mph - N/A   Clear
10:53 PM 64.0 °F 35.1 °F 34% 29.83 in 10.0 mi West 10.4 mph - N/A   Clear
11:53 PM 64.9 °F 34.0 °F 32% 29.82 in 10.0 mi West 4.6 mph - N/A   Clear